Location: Berbisdorf
(50.7638°N, 12.9442°E)
Time: 02:03:16
(UTC+00:00)

UNK - Pass Details

Date: 07 June 2020
Orbit: 667 x 686 km, 98.1° (Epoch: 15 July)

Event Time Altitude Azimuth Distance (km) Brightness Sun altitude
Exits shadow 01:11:42 14° 189° (S) 1,817 5.4 -11.5°
Maximum altitude 01:15:23 48° 261° (W) 879 4.1 -11.2°
Drops below altitude 10° 01:19:51 10° 336° (NNW) 2,106 6.8 -10.8°
Sets 01:22:10 0° 342° (NNW) 3,024 7.7 -10.7°
